Regional Weather Roundup
Issued by NWS

Home | Current Version | Previous Version | Text Only | Print | Product List | Glossary Off
Versions: 1 2 3 4 5 6 7 8 9 10 11 12 13 14 15 16 17 18 19 20 21 22 23 24 25 26 27 28 29 30 31 32 33 34 35 36 37 38 39 40 41 42 43 44 45 46 47 48 49 50

552
ASUS43 KOAX 241510
RWRNE

WEATHER ROUNDUP FOR NEBRASKA
NATIONAL WEATHER SERVICE OMAHA NE
900 AM CST TUE JAN 24 2017

NOTES: SATELLITE DATA IS BEING USED TO AUGMENT CLOUD COVER ABOVE
       12000 FEET.
       "FAIR" INDICATES FEW OR NO CLOUDS BELOW 12,000 FEET WITH NO
       SIGNIFICANT WEATHER AND/OR OBSTRUCTIONS TO VISIBILITY.

  * THESE STATIONS DO NOT REPORT WEATHER SUCH AS RAIN...SNOW OR FOG.

NEZ001>004-019>022-054>056-241600-
NEBRASKA PANHANDLE

CITY           SKY/WX    TMP DP  RH WIND       PRES   REMARKS
SCOTTSBLUFF    HVY SNOW  22  18  85 N16       29.64R VSB 1/4 WCI   8
ALLIANCE       FOG       21  19  92 N20       29.60R VSB 1/4 WCI   6
CHADRON        FOG       22  19  89 N16       29.71R VSB 1/2 WCI   8
KIMBALL        LGT SNOW  22  21  97 N18       29.57S WCI   7
SIDNEY         FLURRIES  23  20  88 N21       29.56R WCI   8
$$

NEZ057>060-069>072-079>082-241600-
SOUTHWEST NEBRASKA

CITY           SKY/WX    TMP DP  RH WIND       PRES   REMARKS
NORTH PLATTE   CLOUDY    32  29  88 E12       29.54R FOG     WCI  23
IMPERIAL       FRZ RAIN  30  29  96 N12       29.53R VSB 1   WCI  20
LEXINGTON      CLOUDY    32  31  94 E12       29.55R FOG     WCI  23
MCCOOK         LGT SNOW  32  32 100 NE13      29.50F FOG     WCI  22
OGALLALA       CLOUDY    31  31  97 NE12      29.55S FOG     WCI  22
$$

NEZ005>010-023>029-035>040-094-241600-
NORTH CENTRAL NEBRASKA

CITY           SKY/WX    TMP DP  RH WIND       PRES   REMARKS
VALENTINE      SNOW      29  26  89 NE13      29.64S VSB 1/2 WCI  19
AINSWORTH      LGT SNOW  29  29 100 NE12      29.62F VSB 3/4 WCI  19
BROKEN BOW     CLOUDY    31  30  96 NE15      29.54F FOG     WCI  20
O`NEILL        SNOW      30  30 100 NE12      29.67S VSB 1/2 WCI  20
ORD            LGT SNOW  31  29  92 E12       29.59F FOG     WCI  22
THEDFORD       LGT SNOW  30  30  99 NE9       29.57F VSB 1   WCI  21
$$

NEZ041-046>049-061>064-073>077-083>087-241600-
SOUTH CENTRAL NEBRASKA

CITY           SKY/WX    TMP DP  RH WIND       PRES   REMARKS
GRAND ISLAND   CLOUDY    30  30 100 E17G26    29.59R FOG     WCI  18
AURORA         CLOUDY    30  30 100 E18G25    29.60S FOG     WCI  18
HASTINGS       CLOUDY    31  29  92 E16G26    29.56S FOG     WCI  20
HEBRON         CLOUDY    32  30  93 E15       29.57S FOG     WCI  22
HOLDREGE       CLOUDY    31  30  94 E13G20    29.53R FOG     WCI  22
KEARNEY *      CLOUDY    30  28  93 E18       29.54S WCI  18
YORK           CLOUDY    30  30 100 E20G28    29.61R FOG     WCI  18
$$

NEZ011>018-030>034-042>045-241600-
NORTHEAST NEBRASKA

CITY           SKY/WX    TMP DP  RH WIND       PRES   REMARKS
NORFOLK        SNOW      29  27  92 E9        29.69R VSB 1/2 WCI  20
ALBION         LGT SNOW  33  31  92 E12G20    29.64F WCI  24
BLAIR          CLOUDY    31  30  96 E18       29.71F FOG     WCI  19
FREMONT        CLOUDY    31  31  99 E12G17    29.72R FOG     WCI  22
TEKAMAH        CLOUDY    31  28  89 E8        29.76S WCI  23
WAYNE          CLOUDY    30  29  95 E14       29.72S WCI  20
$$

NEZ050>053-065>068-078-088>093-241600-
SOUTHEAST NEBRASKA

CITY           SKY/WX    TMP DP  RH WIND       PRES   REMARKS
LINCOLN        CLOUDY    31  29  92 E17G23    29.68F FOG     WCI  19
OMAHA EPPLEY   CLOUDY    31  26  82 E12       29.74F FOG     WCI  22
BEATRICE       CLOUDY    32  31  96 E21G26    29.62F FOG     WCI  20
FALLS CITY     CLOUDY    32  30  92 E20G26    29.67F WCI  20
NEBRASKA CITY  CLOUDY    31  31 100 E17       29.69F FOG     WCI  20
PLATTSMOUTH    CLOUDY    31  28  91 E18       29.70F FOG     WCI  19
$$

NEZ044-045-051>053-067-241600-
OMAHA AREA

CITY           SKY/WX    TMP DP  RH WIND       PRES   REMARKS
OMAHA EPPLEY   CLOUDY    31  26  82 E12       29.74F FOG     WCI  22
BLAIR          CLOUDY    31  30  96 E18       29.71F FOG     WCI  19
FREMONT        CLOUDY    31  31  99 E12G17    29.72R FOG     WCI  22
MILLARD        CLOUDY    33  30  90 E9        29.73S WCI  25
OFFUTT AFB     CLOUDY    31  31 100 E15       29.72F WCI  20
PLATTSMOUTH    CLOUDY    31  28  91 E18       29.70F FOG     WCI  19
WAHOO          CLOUDY    31  29  94 E15       29.70S FOG     WCI  20
$$




USA.gov is the U.S. government's official web portal to all federal, state and local government web resources and services.